Flag for India Weather past 2 weeks in Kãnpur, Uttar Pradesh, India

Now
93 °F

Haze.


Feels Like: 107 °F
Forecast: 89 / 111 °F
Wind: No wind

Location: Lucknow / Amausi

Current Time: May 25, 2015 at 11:31:24 PM

Latest Report: May 25, 2015 at 11:00 PM


Visibility: 2 mi

Pressure: 29.47 "Hg

Humidity: 59%

Dew point: 77 °F

Location of KãnpurLocation

Historic Weather in Kãnpur — Graph

°F

Kãnpur temperature yesterday

Maximum temperature yesterday: 115 °F (at 2:00 PM)
Minimum temperature yesterday: 82 °F (at 6:00 AM)
Average temperature yesterday: 103 °F

Past Weeks' High & Low Weather Summary

 TemperatureHumidityPressure
High115 °F (May 23, 3:00 PM)79% (May 13, 5:00 AM)29.89 "Hg (May 13, 5:00 AM)
Low77 °F (May 12, 5:30 AM)13% (May 22, 2:30 PM)29.42 "Hg (May 22, 4:30 PM)
Average94 °F42%29.60 "Hg
* Reported May 10 10:00 PM — May 25 10:00 PM, Kãnpur, Weather by CustomWeather, © 2015

Note: Actual official high and low records may vary slightly from our data, if they occured in-between our weather recording intervals... More about our weather records

Advertising

Kãnpur weather history for previous 24 hours

 ConditionsComfort  
Time TempWeatherWind HumidityBarometerVisibility
10:00 PM
Mon, May 25
93 °FHaze.No wind59%29.50 "Hg2 mi
8:00 PM97 °FHaze.No wind50%29.47 "Hg2 mi
7:30 PM100 °FHaze.No wind50%29.47 "Hg2 mi
7:00 PM104 °FHaze.No wind35%29.45 "Hg2 mi
5:30 PM113 °FHaze.No wind19%29.45 "Hg2 mi
5:00 PM113 °FDuststorm.No wind19%29.45 "Hg2 mi
2:00 PM113 °FDuststorm.2 mph24%29.47 "Hg2 mi
12:00 PM106 °FDuststorm.3 mph32%29.53 "Hg2 mi
11:30 AM102 °FDuststorm.2 mph35%29.53 "Hg2 mi
11:00 AM102 °FDuststorm.2 mph33%29.53 "Hg2 mi
10:30 AM102 °FDuststorm.7 mph33%29.53 "Hg2 mi
10:00 AM100 °FDuststorm.6 mph35%29.53 "Hg2 mi
9:30 AM99 °FDuststorm.7 mph37%29.53 "Hg2 mi
9:00 AM99 °FDuststorm.7 mph35%29.53 "Hg2 mi
8:30 AM95 °FDuststorm.7 mph39%29.53 "Hg2 mi
8:00 AM95 °FDuststorm.6 mph36%29.53 "Hg2 mi
7:30 AM93 °FDuststorm.3 mph39%29.50 "Hg2 mi
7:00 AM91 °FHaze.No wind41%29.50 "Hg2 mi
6:30 AM88 °FHaze.No wind43%29.50 "Hg2 mi
6:00 AM88 °FHaze.No wind43%29.47 "Hg2 mi
5:30 AM84 °FHaze.No wind51%29.47 "Hg2 mi
4:00 AM86 °FPassing clouds.N/A49%29.45 "Hg2 mi
3:00 AM86 °FPassing clouds.No wind52%29.45 "Hg2 mi
2:00 AM88 °FPassing clouds.No wind46%29.45 "Hg2 mi
1:00 AM91 °FPassing clouds.2 mph38%29.45 "Hg2 mi
12:00 AM95 °FThundershowers. Partly cloudy.No wind34%29.47 "Hg2 mi
Weather by CustomWeather, © 2015

See weather overviewHow to use our weather pages